Regional Weather Roundup
Issued by NWS

Home | Current Version | Previous Version | Graphics & Text | Print | Product List | Glossary On
Versions: 1 2 3 4 5 6 7 8 9 10 11 12 13 14 15 16 17 18 19 20 21 22 23 24 25 26 27 28 29 30 31 32 33 34 35 36 37 38 39 40 41 42 43 44 45 46 47 48 49 50
000
ASUS43 KDTX 181701
RWRMI
MICHIGAN HOURLY REGIONAL WEATHER ROUNDUP
NATIONAL WEATHER SERVICE DETROIT/PONTIAC MI
100 PM EDT FRI AUG 18 2017

NOTE: "FAIR" INDICATES FEW OR NO CLOUDS BELOW 12,000 FEET WITH NO
SIGNIFICANT WEATHER AND/OR OBSTRUCTION TO VISIBILITY.

MIZ047>049-052>055-059>063-066>070-074>076-081>083-181800-
SOUTHEAST LOWER MICHIGAN

CITY           SKY/WX    TMP DP  RH WIND       PRES   REMARKS
ADRIAN         CLOUDY    73  62  68 W10       29.84R
ALMA           CLOUDY    71  61  69 W21G28    29.77R
ANN ARBOR      PTSUNNY   76  62  62 SW21      29.80R
BAD AXE        CLOUDY    71  61  72 W10G20    29.72S
CARO           CLOUDY    71  61  70 W10G20    29.73R
DETROIT CITY   CLOUDY    76  62  62 W14G23    29.77S
DETROIT        PTSUNNY   79  63  57 SW18      29.79S
FLINT          CLOUDY    72  62  71 W12       29.77S
GROSSE ILE     CLOUDY    76  64  65 W12G17    29.78S
HILLSDALE      CLOUDY    72  61  68 W16G23    29.84S
HOWELL         CLOUDY    71  61  70 W15G21    29.80R

CITY           SKY/WX    TMP DP  RH WIND       PRES   REMARKS
JACKSON          N/A     72  62  71 W13G21    29.82R
LAMBERTVILLE   CLOUDY    75  62  62 W9G20     29.82R
LANSING        CLOUDY    71  60  68 W14       29.80S
LAPEER         CLOUDY    70  60  72 W15       29.77R
MASON          CLOUDY    73  61  65 W9G18     29.81R
MONROE         CLOUDY    77  64  63 W14G21    29.79S
MT. CLEMENS    PTSUNNY   76  63  64 W16       29.75S
PONTIAC        PTSUNNY   72  61  68 W16G28    29.77S
PORT HOPE        N/A     72  62  71 W15G25    29.68R
PORT HURON     CLOUDY    73  63  68 SW6       29.75R
TRI CITIES     CLOUDY    73  64  73 W17       29.74R
MIDLAND        CLOUDY    72  61  68 W17G26    29.72S
TROY           CLOUDY    75  62  63 W15G21    29.80R
SAGINAW HB     CLOUDY    70  61  73 W17G24    29.74R
$$
MIZ043>046-050>051-056>058-064>065-071>073-077>080-181800-
SOUTHWEST LOWER MICHIGAN

CITY           SKY/WX    TMP DP  RH WIND       PRES   REMARKS
BATTLE CREEK   CLOUDY    72  61  68 W17       29.84S
BENTON HARBOR  CLOUDY    73  60  63 W13       29.86S
BIG RAPIDS     CLOUDY    66  60  80 W14G22    29.77S
COLDWATER      CLOUDY    74  62  65 W14G20    29.85S
FREMONT        CLOUDY    69  62  79 W9G18     29.79R
HOLLAND        CLOUDY    71  60  68 W15G21    29.84S
GRAND RAPIDS   CLOUDY    71  61  70 W16       29.81R
IONIA          CLOUDY    73  60  65 W14G22    29.79S
KALAMAZOO      CLOUDY    73  60  63 W10       29.84S
LUDINGTON      CLOUDY    69  60  73 NW13G20   29.77R
MARSHALL       CLOUDY    74  61  63 W16G28    29.82S
MOUNT PLEASANT PTSUNNY   74  61  63 W16G26    29.74R
MUSKEGON       PTSUNNY   74  61  63 W18G29    29.81R
SOUTH HAVEN    CLOUDY    72  61  67 W13       29.85S
$$
MIZ016>042-181800-
NORTHERN LOWER MICHIGAN

CITY           SKY/WX    TMP DP  RH WIND       PRES   REMARKS
ALPENA         CLOUDY    71  64  78 W16G26    29.64R
BEAVER ISLAND  CLOUDY    64  59  85 W10G17    29.70R
BELLAIRE       CLOUDY    63  60  89 W6        29.72R
CADILLAC       CLOUDY    67  62  85 W14G20    29.75S
CHARLEVOIX     CLOUDY    64  61  90 W16G25    29.73R
FRANKFORT      CLOUDY    68  62  79 NW9       29.76R
GAYLORD        LGT RAIN  61  59  93 W13       29.71R FOG
GRAYLING       CLOUDY    63  61  91 W10G17    29.72S FOG
HARBOR SPRINGS CLOUDY    64  62  94 W6        29.68R
HOUGHTON LAKE  CLOUDY    66  61  84 W16G23    29.73R
MANISTEE       CLOUDY    67  61  81 NW14G21   29.76R
OSCODA         CLOUDY    72  62  71 W17G24    29.66S
PELLSTON       CLOUDY    64  61  90 W16G22    29.67R
ROGERS CITY    CLOUDY    66  63  90 W14G20    29.64R FOG
TRAVERSE CITY  CLOUDY    65  61  87 W9        29.73R FOG
$$
MIZ007>008-015-181800-
EASTERN UPPER MICHIGAN

CITY           SKY/WX    TMP DP  RH WIND       PRES   REMARKS
KINROSS        CLOUDY    67  63  87 NW16G24   29.61R
MACKINAC ISLAN CLOUDY    65  65 100 W10       29.63R
NEWBERRY       CLOUDY    61  60  97 NW8G20    29.65S
S. S. MARIE    CLOUDY    64  62  93 W13       29.60R FOG
MUNISING         N/A     62  60  93 NW15G25   29.70R
$$
MIZ004>006-011>014-085-181800-
CENTRAL UPPER MICHIGAN

CITY           SKY/WX    TMP DP  RH WIND       PRES   REMARKS
MANISTIQUE     CLOUDY    62  56  81 NW16G22   29.70R
ESCANABA       CLOUDY    65  57  75 NW13      29.74R
MENOMINEE      CLOUDY    67  57  70 NW12G20   29.77R
SAWYER-GWINN   CLOUDY    61  55  82 NW15G21   29.75R
$$
MIZ001>003-009>011-084-181800-
WESTERN UPPER MICHIGAN

CITY           SKY/WX    TMP DP  RH WIND       PRES   REMARKS
IRON MOUNTAIN  CLOUDY    64  54  69 NW9G21    29.77R
HOUGHTON         N/A     60  56  86 MISG      29.76S
COPPER HARBOR    N/A     59  55  87 N23       29.71F
IRONWOOD       CLOUDY    64  57  78 NW12      29.85S
$$

ABBREVIATIONS USED IN REMARKS
   TC - TEMPERATURE IN CELSIUS
  WCI - WIND CHILL INDEX
   HX - HEAT INDEX
  VSB - VISIBILITY




USA.gov is the U.S. government's official web portal to all federal, state and local government web resources and services.